FENGYUN 1C DEB

Satellite information

Favourite Embed

Satellite Type and Status

DEBRISIN ORBIT

Key statistics

Satellite FENGYUN 1C DEB at a glance.

Uptime

9556

Days in orbit

Revolutions

≈ 14.0

Per day

Orbit

SSO

Sun Synchronous Orbit

Inclination

98.6

Latest

Satellite identification and parameters

Extended collection of information and parameters for FENGYUN 1C DEB.

Object identification

Identified? True

Debris? True

Object name: FENGYUN 1C DEB

International designator: 1999-025JB

Object number (NORAD): 29929

Object ID (CCSDS): 29929

Country: PEOPLES REPUBLIC OF CHINA (PRC)

Current information (Y/N): Y

RCS size: SMALL

Orbital parameters

Period: 102.817 minutes

Inclination: 98.6323 deg

SMA: 7270.025 km

Apoapsis: 987.003 km

Periapsis: 796.776 km

RAAN: 116.6887 deg

Eccentricy: 0.013083

Argument of periapsis: 258.1809 deg

Mean anomaly: 156.2937 deg

Mean motion: 14.00551031 rev/day

Mean motion (dot): 0.00001057 rev/day2

B* drag term: 0.00068672 1/REarth

Two-line elements (TLE)

Creation date: July 8, 2025, 2:27 a.m.

Reference frame: TEME

Reference center: EARTH

Epoch: July 7, 2025, 6:08 p.m. UTC

TLE line 0: 0 FENGYUN 1C DEB

TLE line 1: 1 29929U 99025JB 25188.75572470 .00001057 00000-0 68672-3 0 9992

TLE line 2: 2 29929 98.6323 116.6887 0130830 258.1809 156.2937 14.00551031937449

Live tracking on map

Real-time ground track for satellite FENGYUN 1C DEB.

In-orbit conjunctions

A list of the most updated potential collisions computed for object FENGYUN 1C DEB.

Target Orbit TCA Probability of collision Miss distance Type
SL-8 R/B LEO 2024-12-31 18:18:17 0.0002550719 171.0 (m) ROCKET BODY
FENGYUN 1C DEB SSO 2024-11-11 08:19:37 0.0006471275 594.0 (m) DEBRIS

Associated space launch

Chinese polar orbiting meteorological satellite

FENGYUN 1C DEB was lifted into orbit during the mission ‘Long March 4B | Feng Yun 1C’, on board a Long March 4B space rocket.

The launch took place on May 10, 1999, 1:33 a.m. from Launch Complex 7.

For more information about the launch, click the button.

Launch to space Long March 4B | Feng Yun 1C
Long March 4B | Feng Yun 1C

Agency: N/A

Status: Launch Successful

Launch date: May 10, 1999, 1:33 a.m. UTC

Rocket: Long March 4B

Launch pad: Launch Complex 7

Location: Taiyuan Satellite Launch Center, People's Republic of China

...

Latest news about this satellite

There are no fresh news available about this satellite. Check back as we update our databases every day.


Newsletter sign-up

Weekly statistics, charts and insights to help you stay on top of the space industry.